KC5DAQ-2 Weather Reports


Display with metric or nautical units.
time (UTC)temp
F
wind
direction
speed
MPH
gust
MPH
rain 1hr
in
rain 24hr
in
rain mn
in
humidity
%
barometer
mb
20260503210532 81 203 0.0 2.0 0.00 0.01 0.01 63 1011.2
20260503210432 81 203 1.0 2.0 0.00 0.01 0.01 64 1011.2
20260503210332 81 200 1.0 2.0 0.00 0.01 0.01 65 1011.3
20260503210230 81 192 0.0 2.0 0.00 0.01 0.01 65 1011.3
20260503210123 81 292 0.0 0.0 0.00 0.01 0.01 65 1011.2
20260503210019 81 282 0.0 0.0 0.00 0.01 0.01 65 1011.2
20260503205921 81 282 0.0 0.0 0.00 0.01 0.01 65 1011.3
20260503205820 81 282 0.0 0.0 0.00 0.01 0.01 65 1011.2
20260503205718 81 282 0.0 0.0 0.00 0.01 0.01 67 1011.2
20260503205619 81 282 0.0 0.0 0.00 0.01 0.01 67 1011.3
20260503205519 81 99 0.0 0.0 0.00 0.01 0.01 67 1011.3
20260503205420 81 327 0.0 0.0 0.00 0.01 0.01 67 1011.3
20260503205319 81 310 0.0 0.0 0.00 0.01 0.01 66 1011.3
20260503205220 81 309 0.0 0.0 0.00 0.01 0.01 66 1011.3
20260503205118 81 309 0.0 0.0 0.00 0.01 0.01 66 1011.3
20260503205020 81 309 0.0 0.0 0.00 0.01 0.01 66 1011.4
20260503204919 81 196 0.0 0.0 0.00 0.01 0.01 66 1011.3
20260503204813 81 195 0.0 0.0 0.00 0.01 0.01 66 1011.4
20260503204714 81 209 0.0 0.0 0.00 0.01 0.01 66 1011.4
20260503204611 81 209 0.0 0.0 0.00 0.01 0.01 67 1011.4
20260503204504 81 207 0.0 0.0 0.00 0.01 0.01 67 1011.4
20260503204401 81 209 0.0 0.0 0.00 0.01 0.01 65 1011.4
20260503204302 81 210 0.0 0.0 0.00 0.01 0.01 65 1011.5
20260503204204 81 209 0.0 0.0 0.00 0.01 0.01 65 1011.5
20260503204103 81 209 0.0 0.0 0.00 0.01 0.01 65 1011.5
20260503204004 81 209 0.0 0.0 0.00 0.01 0.01 65 1011.6
20260503203905 81 209 0.0 0.0 0.00 0.01 0.01 65 1011.6
20260503203802 81 207 0.0 0.0 0.00 0.01 0.01 65 1011.5
20260503203702 81 207 0.0 0.0 0.00 0.01 0.01 66 1011.6
20260503203603 81 151 0.0 0.0 0.00 0.01 0.01 65 1011.6
20260503203455 81 149 0.0 0.0 0.00 0.01 0.01 65 1011.7
20260503203350 81 149 0.0 0.0 0.00 0.01 0.01 65 1011.7
20260503203246 81 151 0.0 0.0 0.00 0.01 0.01 64 1011.8
20260503203130 81 148 0.0 0.0 0.00 0.01 0.01 64 1011.8
20260503203031 81 162 0.0 0.0 0.00 0.01 0.01 66 1011.8
20260503202933 81 168 0.0 0.0 0.00 0.01 0.01 66 1011.9
20260503202832 81 165 0.0 0.0 0.00 0.01 0.01 66 1011.9
20260503202732 81 241 0.0 0.0 0.00 0.01 0.01 66 1011.8
20260503202632 81 214 0.0 0.0 0.00 0.01 0.01 66 1011.8
20260503202528 81 214 0.0 0.0 0.00 0.01 0.01 66 1011.8
20260503202423 81 214 0.0 0.0 0.00 0.01 0.01 67 1011.8
20260503202319 82 354 0.0 0.0 0.00 0.01 0.01 68 1011.9
20260503202218 82 114 0.0 0.0 0.00 0.01 0.01 67 1011.8
20260503202119 82 114 0.0 0.0 0.00 0.01 0.01 67 1011.9
20260503202019 82 114 0.0 0.0 0.00 0.01 0.01 66 1011.8
20260503201918 82 114 0.0 0.0 0.00 0.01 0.01 66 1011.9
20260503201819 82 114 0.0 0.0 0.00 0.01 0.01 66 1011.9
20260503201719 82 114 0.0 0.0 0.00 0.01 0.01 66 1011.9
20260503201617 82 76 0.0 0.0 0.00 0.01 0.01 66 1011.9
20260503201518 82 76 0.0 0.0 0.00 0.01 0.01 66 1012.0
20260503201419 82 76 0.0 0.0 0.00 0.01 0.01 66 1011.9
20260503201317 82 76 0.0 0.0 0.00 0.01 0.01 66 1011.9
20260503201218 82 76 0.0 0.0 0.00 0.01 0.01 66 1012.0
20260503201117 82 76 0.0 0.0 0.00 0.01 0.01 66 1012.1
20260503201019 82 76 0.0 0.0 0.00 0.01 0.01 66 1012.0
20260503200918 82 78 0.0 0.0 0.00 0.01 0.01 66 1012.1
20260503200821 82 76 0.0 0.0 0.00 0.01 0.01 66 1012.1
20260503200717 82 351 0.0 0.0 0.00 0.01 0.01 66 1012.1
20260503200620 81 336 0.0 0.0 0.00 0.01 0.01 66 1012.1
20260503200520 81 334 0.0 0.0 0.00 0.01 0.01 66 1012.0
20260503200418 81 336 0.0 0.0 0.00 0.01 0.01 66 1012.1
20260503200319 81 343 0.0 0.0 0.00 0.01 0.01 66 1012.1
20260503200215 81 343 0.0 0.0 0.00 0.01 0.01 66 1012.2
20260503200110 81 343 0.0 0.0 0.00 0.01 0.01 65 1012.2
20260503200005 81 268 0.0 0.0 0.00 0.01 0.01 65 1012.3
20260503195904 81 248 0.0 0.0 0.00 0.01 0.01 66 1012.4
20260503195803 81 247 0.0 0.0 0.00 0.01 0.01 66 1012.4
20260503195704 81 245 0.0 0.0 0.00 0.01 0.01 66 1012.3
20260503195602 81 247 0.0 0.0 0.00 0.01 0.01 66 1012.4
20260503195502 81 248 0.0 0.0 0.00 0.01 0.01 68 1012.4
20260503195401 81 247 0.0 0.0 0.00 0.01 0.01 68 1012.3
20260503195256 81 250 0.0 0.0 0.00 0.01 0.01 69 1012.4
20260503195152 81 248 0.0 0.0 0.00 0.01 0.01 69 1012.4
20260503195056 81 250 0.0 0.0 0.00 0.01 0.01 66 1012.4
20260503194946 80 251 0.0 0.0 0.00 0.01 0.01 67 1012.4
20260503194844 80 251 0.0 0.0 0.00 0.01 0.01 67 1012.5
20260503194742 80 288 0.0 0.0 0.00 0.01 0.01 67 1012.5
20260503194638 80 261 0.0 0.0 0.00 0.01 0.01 68 1012.5
20260503194532 80 262 0.0 0.0 0.00 0.01 0.01 68 1012.5
20260503194431 80 158 0.0 0.0 0.00 0.01 0.01 67 1012.5
20260503194332 80 151 0.0 0.0 0.00 0.01 0.01 67 1012.5
20260503194232 80 137 0.0 0.0 0.00 0.01 0.01 66 1012.5
20260503194131 80 338 0.0 0.0 0.00 0.01 0.01 66 1012.5
20260503194032 80 305 0.0 0.0 0.00 0.01 0.01 68 1012.5
20260503193931 80 306 0.0 0.0 0.00 0.01 0.01 67 1012.6
20260503193819 80 306 0.0 0.0 0.00 0.01 0.01 67 1012.6
20260503193718 80 306 0.0 0.0 0.00 0.01 0.01 68 1012.6
20260503193618 80 223 0.0 0.0 0.00 0.01 0.01 68 1012.6
20260503193518 80 223 0.0 0.0 0.00 0.01 0.01 68 1012.6
20260503193416 80 223 0.0 0.0 0.00 0.01 0.01 68 1012.7
20260503193317 80 223 0.0 0.0 0.00 0.01 0.01 68 1012.6
20260503193217 81 223 0.0 0.0 0.00 0.01 0.01 67 1012.7
20260503193116 81 223 0.0 0.0 0.00 0.01 0.01 67 1012.7
20260503193017 81 223 0.0 0.0 0.00 0.01 0.01 67 1012.7
20260503192917 81 223 0.0 0.0 0.00 0.01 0.01 67 1012.7
20260503192816 81 223 0.0 0.0 0.00 0.01 0.01 66 1012.8
20260503192716 81 223 0.0 0.0 0.00 0.01 0.01 65 1012.7
20260503192616 81 223 0.0 0.0 0.00 0.01 0.01 65 1012.7
20260503192522 81 226 0.0 0.0 0.00 0.01 0.01 65 1012.8
20260503192416 81 226 0.0 0.0 0.00 0.01 0.01 65 1012.8
20260503192315 81 221 0.0 0.0 0.00 0.01 0.01 65 1012.8
20260503192213 81 233 0.0 0.0 0.00 0.01 0.01 64 1012.8
20260503192108 81 147 0.0 0.0 0.00 0.01 0.01 64 1012.8
20260503192005 81 148 0.0 0.0 0.00 0.01 0.01 64 1012.8
20260503191904 81 148 0.0 0.0 0.00 0.01 0.01 64 1012.8
20260503191802 81 148 0.0 0.0 0.00 0.01 0.01 65 1012.9
20260503191702 81 148 0.0 0.0 0.00 0.01 0.01 65 1012.9
20260503191602 81 148 0.0 0.0 0.00 0.01 0.01 67 1012.9
20260503191502 81 148 0.0 0.0 0.00 0.01 0.01 67 1012.9
20260503191404 81 148 0.0 0.0 0.00 0.01 0.01 65 1012.9
20260503191302 81 148 0.0 0.0 0.00 0.01 0.01 65 1013.0
20260503191203 81 148 0.0 0.0 0.00 0.01 0.01 65 1012.9
20260503191103 81 147 0.0 0.0 0.00 0.01 0.01 65 1013.0
20260503191002 81 197 0.0 0.0 0.00 0.01 0.01 65 1013.1
20260503190903 81 212 0.0 0.0 0.00 0.01 0.01 65 1013.1
20260503190805 82 180 0.0 0.0 0.00 0.01 0.01 65 1013.1
20260503190702 81 179 0.0 0.0 0.00 0.01 0.01 66 1013.1
20260503190602 81 94 0.0 0.0 0.00 0.01 0.01 66 1013.1
20260503190505 81 94 0.0 0.0 0.00 0.01 0.01 66 1013.1
20260503190402 81 94 0.0 0.0 0.00 0.01 0.01 66 1013.1
20260503190302 81 93 0.0 1.0 0.00 0.01 0.01 67 1013.1
20260503190204 81 92 0.0 1.0 0.00 0.01 0.01 67 1013.2
20260503190104 81 83 0.0 1.0 0.00 0.01 0.01 67 1013.2
20260503190004 81 109 0.0 1.0 0.00 0.01 0.01 65 1013.2
20260503185902 81 109 0.0 1.0 0.00 0.01 0.01 65 1013.1
20260503185803 81 283 0.0 1.0 0.00 0.01 0.01 65 1013.2
20260503185703 81 96 0.0 1.0 0.00 0.01 0.01 65 1013.2
20260503185604 81 94 0.0 1.0 0.00 0.01 0.01 68 1013.2
20260503185502 81 178 0.0 1.0 0.00 0.01 0.01 68 1013.2
20260503185402 81 180 0.0 1.0 0.00 0.01 0.01 68 1013.2
20260503185304 81 231 0.0 0.0 0.00 0.01 0.01 68 1013.2
20260503185202 81 231 0.0 0.0 0.00 0.01 0.01 66 1013.3
20260503185103 81 230 0.0 0.0 0.00 0.01 0.01 66 1013.3
20260503185004 81 230 0.0 0.0 0.00 0.01 0.01 66 1013.3
20260503184904 81 283 0.0 0.0 0.00 0.01 0.01 68 1013.2
20260503184803 81 336 0.0 0.0 0.00 0.01 0.01 67 1013.3
20260503184702 80 338 0.0 0.0 0.00 0.01 0.01 67 1013.2
20260503184604 80 125 0.0 0.0 0.00 0.01 0.01 67 1013.3
20260503184503 80 128 0.0 0.0 0.00 0.01 0.01 67 1013.2
20260503184404 80 127 0.0 1.0 0.00 0.01 0.01 66 1013.2
20260503184304 80 127 0.0 1.0 0.00 0.01 0.01 66 1013.4
20260503184203 80 127 0.0 1.0 0.00 0.01 0.01 66 1013.4
20260503184103 80 113 0.0 1.0 0.00 0.01 0.01 66 1013.3
20260503184004 80 113 0.0 1.0 0.00 0.01 0.01 69 1013.3
20260503183903 80 123 0.0 1.0 0.00 0.01 0.01 69 1013.3
20260503183802 80 123 0.0 1.0 0.00 0.01 0.01 69 1013.5
20260503183702 80 182 0.0 1.0 0.00 0.01 0.01 67 1013.4
20260503183604 80 180 0.0 1.0 0.00 0.01 0.01 66 1013.4
20260503183505 80 179 0.0 1.0 0.00 0.01 0.01 66 1013.3
20260503183407 80 348 0.0 0.0 0.00 0.01 0.01 66 1013.4
20260503183304 80 305 0.0 0.0 0.00 0.01 0.01 67 1013.4
20260503183203 80 235 0.0 0.0 0.00 0.01 0.01 68 1013.4
20260503183104 80 234 0.0 0.0 0.00 0.01 0.01 65 1013.5
20260503183003 80 228 0.0 0.0 0.00 0.01 0.01 65 1013.4
20260503182903 80 111 0.0 0.0 0.00 0.01 0.01 65 1013.5
20260503182803 80 230 0.0 0.0 0.00 0.01 0.01 65 1013.5
20260503182702 80 233 0.0 2.0 0.00 0.01 0.01 65 1013.5
20260503182602 80 250 0.0 2.0 0.00 0.01 0.01 65 1013.6
20260503182503 80 66 0.0 2.0 0.00 0.01 0.01 65 1013.6
20260503182402 80 68 0.0 2.0 0.00 0.01 0.01 65 1013.6
20260503182305 80 68 0.0 2.0 0.00 0.01 0.01 65 1013.6
20260503182204 81 357 0.0 2.0 0.00 0.01 0.01 65 1013.6
20260503182104 81 235 0.0 2.0 0.00 0.01 0.01 65 1013.7
20260503182005 80 244 0.0 2.0 0.00 0.01 0.01 65 1013.7
20260503181902 80 245 0.0 2.0 0.00 0.01 0.01 65 1013.6
20260503181805 80 245 0.0 2.0 0.00 0.01 0.01 65 1013.7
20260503181704 80 175 0.0 0.0 0.00 0.01 0.01 65 1013.7
20260503181603 80 172 0.0 0.0 0.00 0.01 0.01 66 1013.8
20260503181503 80 162 0.0 0.0 0.00 0.01 0.01 66 1013.7
20260503181354 80 135 0.0 0.0 0.00 0.01 0.01 66 1013.7
20260503181253 80 89 0.0 0.0 0.00 0.01 0.01 66 1013.7
20260503181148 80 87 0.0 0.0 0.00 0.01 0.01 66 1013.8
20260503181047 80 86 0.0 0.0 0.00 0.01 0.01 66 1013.8
20260503180941 80 113 0.0 0.0 0.00 0.01 0.01 66 1013.9
20260503180835 80 71 0.0 0.0 0.00 0.01 0.01 68 1013.9
20260503180732 80 65 0.0 0.0 0.00 0.01 0.01 68 1013.8
20260503180631 80 65 0.0 0.0 0.00 0.01 0.01 65 1013.8
20260503180533 80 65 0.0 0.0 0.00 0.01 0.01 67 1013.9
20260503180433 80 96 0.0 0.0 0.00 0.01 0.01 68 1013.9
20260503180328 80 97 0.0 0.0 0.00 0.01 0.01 68 1013.9
20260503180224 80 97 0.0 0.0 0.00 0.01 0.01 68 1014.0
20260503180116 80 244 0.0 0.0 0.00 0.01 0.01 68 1014.0
20260503180017 80 244 0.0 0.0 0.00 0.01 0.01 67 1014.0
20260503175914 80 244 0.0 0.0 0.00 0.01 0.01 67 1014.2
20260503175816 80 180 0.0 0.0 0.00 0.01 0.01 67 1014.1
20260503175715 80 180 0.0 0.0 0.00 0.01 0.01 67 1014.1
20260503175615 80 180 0.0 0.0 0.00 0.01 0.01 67 1014.1
20260503175517 80 180 0.0 0.0 0.00 0.01 0.01 66 1014.1
20260503175415 80 180 0.0 0.0 0.00 0.01 0.01 67 1014.1
20260503175316 81 149 0.0 0.0 0.00 0.01 0.01 66 1014.2
20260503175215 81 138 0.0 0.0 0.00 0.01 0.01 66 1014.1
20260503175120 81 138 0.0 0.0 0.00 0.01 0.01 65 1014.2
20260503175015 81 134 0.0 0.0 0.00 0.01 0.01 67 1014.1
20260503174915 81 135 0.0 0.0 0.00 0.01 0.01 67 1014.3
20260503174816 81 131 0.0 0.0 0.00 0.01 0.01 68 1014.3
20260503174716 81 130 0.0 0.0 0.00 0.01 0.01 68 1014.2
20260503174616 81 152 0.0 0.0 0.00 0.01 0.01 68 1014.3
20260503174516 81 151 0.0 0.0 0.00 0.01 0.01 68 1014.3
20260503174416 80 244 0.0 0.0 0.00 0.01 0.01 68 1014.3
20260503174315 80 102 0.0 0.0 0.00 0.01 0.01 69 1014.4
20260503174215 80 151 0.0 0.0 0.00 0.01 0.01 69 1014.4
20260503174114 80 149 0.0 0.0 0.00 0.01 0.01 69 1014.3
20260503174015 80 151 0.0 1.0 0.00 0.01 0.01 69 1014.4
20260503173914 80 151 0.0 1.0 0.00 0.01 0.01 69 1014.4
20260503173815 80 151 0.0 2.0 0.00 0.01 0.01 69 1014.5
20260503173715 79 151 0.0 2.0 0.00 0.01 0.01 68 1014.5
20260503173613 79 151 0.0 2.0 0.00 0.01 0.01 68 1014.5
20260503173515 79 151 0.0 2.0 0.00 0.01 0.01 68 1014.5
20260503173416 79 130 0.0 2.0 0.00 0.01 0.01 68 1014.6
20260503173316 79 130 0.0 2.0 0.00 0.01 0.01 68 1014.5
20260503173214 79 223 0.0 3.0 0.00 0.01 0.01 67 1014.6
20260503173114 79 220 0.0 5.0 0.00 0.01 0.01 67 1014.6
20260503173015 79 251 0.0 5.0 0.00 0.01 0.01 67 1014.6
20260503172913 79 252 1.0 5.0 0.00 0.01 0.01 67 1014.6
20260503172813 79 261 1.0 5.0 0.00 0.01 0.01 67 1014.7
20260503172714 79 264 1.0 5.0 0.00 0.01 0.01 67 1014.7
20260503172614 79 155 1.0 5.0 0.00 0.01 0.01 68 1014.7
20260503172515 80 154 1.0 5.0 0.00 0.01 0.01 68 1014.8
20260503172415 80 152 1.0 5.0 0.00 0.01 0.01 68 1014.7
20260503172313 79 152 2.0 5.0 0.00 0.01 0.01 68 1014.8
20260503172213 79 75 2.0 5.0 0.00 0.01 0.01 68 1014.7
20260503172114 80 207 1.0 3.0 0.00 0.01 0.01 68 1014.8
20260503172014 80 212 1.0 2.0 0.00 0.01 0.01 68 1014.8
20260503171914 79 212 1.0 2.0 0.00 0.01 0.01 67 1014.8
20260503171813 79 212 0.0 3.0 0.00 0.01 0.01 68 1014.8
20260503171714 80 212 0.0 3.0 0.00 0.01 0.01 68 1014.8
20260503171613 79 210 1.0 3.0 0.00 0.01 0.01 68 1014.8
20260503171514 79 223 1.0 3.0 0.00 0.01 0.01 68 1014.9
20260503171413 79 223 0.0 3.0 0.00 0.01 0.01 68 1014.9
20260503171315 79 233 0.0 3.0 0.00 0.01 0.01 68 1014.9
20260503171213 79 207 0.0 3.0 0.00 0.01 0.01 67 1014.9
20260503171114 79 175 1.0 3.0 0.00 0.01 0.01 67 1014.9
20260503171014 79 175 1.0 3.0 0.00 0.01 0.01 67 1015.0
20260503170913 79 169 2.0 3.0 0.00 0.01 0.01 68 1014.9
20260503170815 79 299 2.0 3.0 0.00 0.01 0.01 69 1014.9
20260503170714 79 71 1.0 2.0 0.00 0.01 0.01 68 1014.9
20260503170615 79 130 0.0 2.0 0.00 0.01 0.01 68 1015.0
20260503170515 79 130 0.0 2.0 0.00 0.01 0.01 68 1015.0
20260503170415 79 128 0.0 2.0 0.00 0.01 0.01 68 1015.0
20260503170313 79 128 0.0 2.0 0.00 0.01 0.01 68 1014.9
20260503170213 79 175 0.0 2.0 0.00 0.01 0.01 69 1014.9
20260503170114 79 176 0.0 2.0 0.00 0.01 0.01 68 1015.0
20260503160213 74 104 1.0 2.0 0.00 0.01 0.01 72 1015.1
20260503160113 74 103 1.0 3.0 0.00 0.01 0.01 72 1015.1
20260503151011 67 210 1.0 2.0 0.00 0.01 0.01 99 1015.0
20260503150910 67 210 0.0 2.0 0.00 0.01 0.01 99 1014.9
20260503150812 66 210 0.0 2.0 0.00 0.01 0.01 99 1014.9
20260503150711 66 209 0.0 2.0 0.00 0.01 0.01 99 1014.9
20260503150610 66 209 0.0 2.0 0.00 0.01 0.01 100 1014.9
20260503150512 66 178 0.0 2.0 0.00 0.01 0.01 100 1014.9
20260503150411 66 238 0.0 1.0 0.00 0.01 0.01 100 1014.9
20260503150310 66 237 0.0 1.0 0.00 0.01 0.01 100 1014.9
20260503150212 66 237 0.0 1.0 0.00 0.01 0.01 100 1014.9
20260503150113 65 237 0.0 1.0 0.00 0.01 0.01 100 1014.8
20260503140310 57 293 0.0 1.0 0.00 0.01 0.01 100 1014.6
20260503140211 57 293 0.0 1.0 0.00 0.01 0.01 100 1014.6
20260503140111 57 292 0.0 0.0 0.00 0.01 0.01 100 1014.6
20260503131402 52 83 0.0 0.0 0.00 0.01 0.01 98 1014.3
20260503131303 52 83 0.0 0.0 0.00 0.01 0.01 98 1014.3
20260503131202 52 83 0.0 0.0 0.00 0.01 0.01 98 1014.2
20260503131105 52 83 0.0 0.0 0.00 0.01 0.01 98 1014.2
20260503131002 52 83 0.0 0.0 0.00 0.01 0.01 98 1014.2
20260503130902 51 83 0.0 0.0 0.00 0.01 0.01 98 1014.3
20260503130804 51 83 0.0 0.0 0.00 0.01 0.01 98 1014.1
20260503130703 51 83 0.0 0.0 0.00 0.01 0.01 98 1014.2
20260503130603 51 83 0.0 0.0 0.00 0.01 0.01 98 1014.2
20260503130503 51 83 0.0 0.0 0.00 0.01 0.01 98 1014.2
20260503130403 51 83 0.0 0.0 0.00 0.01 0.01 98 1014.1
20260503130303 51 83 0.0 0.0 0.00 0.01 0.01 98 1014.2
20260503130208 51 83 0.0 0.0 0.00 0.01 0.01 98 1014.2
20260503130103 51 83 0.0 0.0 0.00 0.01 0.01 98 1014.2
20260503120202 50 83 0.0 0.0 0.00 0.01 0.01 97 1013.7
20260503120104 50 83 0.0 0.0 0.00 0.01 0.01 97 1013.7
20260503110802 51 83 0.0 0.0 0.00 0.01 0.01 97 1013.4
20260503110702 51 83 0.0 0.0 0.00 0.01 0.01 97 1013.3
20260503110603 51 83 0.0 0.0 0.00 0.01 0.01 97 1013.3
20260503110503 51 83 0.0 0.0 0.00 0.01 0.01 97 1013.3
20260503110402 51 83 0.0 0.0 0.00 0.01 0.01 97 1013.3
20260503110308 51 83 0.0 0.0 0.00 0.01 0.01 97 1013.3
20260503110204 51 83 0.0 0.0 0.00 0.01 0.01 97 1013.4
20260503100230 52 83 0.0 0.0 0.00 0.01 0.01 96 1013.1
20260503100130 52 83 0.0 0.0 0.00 0.01 0.01 96 1013.1
20260503090457 53 83 0.0 0.0 0.00 0.01 0.01 96 1012.8
20260503090355 53 83 0.0 0.0 0.00 0.01 0.01 96 1012.8
20260503090257 53 83 0.0 0.0 0.00 0.01 0.01 96 1012.8
20260503090155 53 83 0.0 0.0 0.00 0.01 0.01 96 1012.8
20260503081556 53 83 0.0 0.0 0.00 0.01 0.01 96 1012.9
20260503081454 53 83 0.0 0.0 0.00 0.01 0.01 96 1012.9
20260503081400 53 83 0.0 0.0 0.00 0.01 0.01 96 1012.9
20260503081256 53 83 0.0 0.0 0.00 0.01 0.01 96 1012.8
20260503081155 54 83 0.0 0.0 0.00 0.01 0.01 96 1012.8
20260503081054 53 83 0.0 0.0 0.00 0.01 0.01 96 1012.9
20260503080956 54 83 0.0 0.0 0.00 0.01 0.01 96 1012.9
20260503080856 54 83 0.0 0.0 0.00 0.01 0.01 96 1012.9
20260503080754 54 83 0.0 0.0 0.00 0.01 0.01 96 1012.9
20260503080656 54 83 0.0 0.0 0.00 0.01 0.01 96 1012.9
20260503080556 54 83 0.0 0.0 0.00 0.01 0.01 96 1012.9
20260503080454 54 83 0.0 0.0 0.00 0.01 0.01 96 1012.9
20260503080354 54 83 0.0 0.0 0.00 0.01 0.01 96 1012.9
20260503080256 54 83 0.0 0.0 0.00 0.01 0.01 96 1013.0
20260503080155 54 83 0.0 0.0 0.00 0.01 0.01 96 1012.9
20260503072931 54 83 0.0 0.0 0.00 0.01 0.01 95 1013.0
20260503072829 54 83 0.0 0.0 0.00 0.01 0.01 95 1013.0
20260503072725 54 83 0.0 0.0 0.00 0.01 0.01 95 1013.0
20260503072620 54 83 0.0 0.0 0.00 0.01 0.01 95 1012.9
20260503072518 54 83 0.0 0.0 0.00 0.01 0.01 95 1013.0
20260503072411 54 83 0.0 0.0 0.00 0.01 0.01 95 1013.0
20260503072306 54 83 0.0 0.0 0.00 0.01 0.01 95 1013.0
20260503072204 54 83 0.0 0.0 0.00 0.01 0.01 95 1013.0
20260503072103 54 83 0.0 0.0 0.00 0.01 0.01 95 1013.0
20260503072004 54 83 0.0 0.0 0.00 0.01 0.01 95 1013.0
20260503071902 54 83 0.0 0.0 0.00 0.01 0.01 95 1013.0
20260503071802 54 83 0.0 0.0 0.00 0.01 0.01 95 1013.0
20260503071702 54 83 0.0 0.0 0.00 0.01 0.01 95 1013.0
20260503071604 55 83 0.0 0.0 0.00 0.01 0.01 95 1013.0
20260503071504 55 83 0.0 0.0 0.00 0.01 0.01 95 1013.0
20260503071404 55 83 0.0 0.0 0.00 0.01 0.01 95 1013.0
20260503071302 55 83 0.0 0.0 0.00 0.01 0.01 95 1013.1
20260503071204 55 83 0.0 0.0 0.00 0.01 0.01 95 1013.0
20260503071102 55 83 0.0 0.0 0.00 0.01 0.01 95 1013.0
20260503071002 55 83 0.0 0.0 0.00 0.01 0.01 95 1013.0
20260503070904 55 83 0.0 0.0 0.00 0.01 0.01 95 1013.0
20260503070804 55 83 0.0 0.0 0.00 0.01 0.01 95 1013.1
20260503070704 55 83 0.0 0.0 0.00 0.01 0.01 95 1013.1
20260503070603 55 83 0.0 0.0 0.00 0.01 0.01 95 1013.1
20260503070504 55 83 0.0 0.0 0.00 0.01 0.01 95 1013.1
20260503070402 55 83 0.0 0.0 0.00 0.01 0.01 95 1013.1
20260503070303 55 83 0.0 0.0 0.00 0.01 0.01 95 1013.1
20260503070203 55 83 0.0 0.0 0.00 0.01 0.01 95 1013.1
20260503060303 56 83 0.0 0.0 0.01 0.01 0.01 95 1013.1
20260503060157 56 83 0.0 0.0 0.01 0.01 0.01 95 1013.1
20260503055040 56 83 0.0 0.0 0.01 0.00 0.01 95 1013.2
20260503054932 56 83 0.0 0.0 0.01 0.00 0.01 95 1013.1
20260503054832 56 83 0.0 0.0 0.01 0.00 0.01 95 1013.2
20260503054731 56 83 0.0 0.0 0.01 0.00 0.01 95 1013.3
20260503054632 56 83 0.0 0.0 0.01 0.00 0.01 95 1013.2
20260503054532 56 83 0.0 0.0 0.01 0.00 0.01 95 1013.1
20260503054432 56 83 0.0 0.0 0.01 0.00 0.01 95 1013.2
20260503054332 56 83 0.0 0.0 0.01 0.00 0.01 95 1013.2
20260503054231 56 83 0.0 0.0 0.01 0.00 0.00 95 1013.3
20260503054131 56 83 0.0 0.0 0.00 0.00 0.00 95 1013.3
20260503054031 56 83 0.0 0.0 0.00 0.00 0.00 95 1013.3
20260503053930 56 83 0.0 0.0 0.00 0.00 0.00 95 1013.2
20260503053829 56 83 0.0 0.0 0.00 0.00 0.00 95 1013.4
20260503053721 56 83 0.0 0.0 0.00 0.00 0.00 95 1013.3
20260503053619 56 83 0.0 0.0 0.00 0.00 0.00 95 1013.3
20260503053518 56 83 0.0 0.0 0.00 0.00 0.00 95 1013.4
20260503053416 56 83 0.0 0.0 0.00 0.00 0.00 95 1013.2
20260503053308 56 83 0.0 0.0 0.00 0.00 0.00 95 1013.2
20260503053205 56 83 0.0 0.0 0.00 0.00 0.00 95 1013.3
20260503053102 56 83 0.0 0.0 0.00 0.00 0.00 95 1013.3
20260503053005 56 83 0.0 0.0 0.00 0.00 0.00 95 1013.3
20260503052903 56 83 0.0 0.0 0.00 0.00 0.00 95 1013.3
20260503052802 56 83 0.0 0.0 0.00 0.00 0.00 95 1013.3
20260503052703 57 83 0.0 0.0 0.00 0.00 0.00 95 1013.2
20260503052603 57 83 0.0 0.0 0.00 0.00 0.00 94 1013.2
20260503052502 57 83 0.0 0.0 0.00 0.00 0.00 94 1013.1
20260503052404 57 83 0.0 0.0 0.00 0.00 0.00 94 1013.1
20260503052306 57 83 0.0 0.0 0.00 0.00 0.00 94 1013.1
20260503052204 57 83 0.0 0.0 0.00 0.00 0.00 94 1013.1
20260503052103 57 83 0.0 0.0 0.00 0.00 0.00 94 1013.0
20260503052003 57 83 0.0 0.0 0.00 0.00 0.00 94 1013.0
20260503051902 57 83 0.0 0.0 0.00 0.00 0.00 95 1013.0
20260503051803 57 83 0.0 0.0 0.00 0.00 0.00 95 1013.0
20260503051706 57 83 0.0 0.0 0.00 0.00 0.00 95 1012.9
20260503051604 57 83 0.0 0.0 0.00 0.00 0.00 95 1012.9
20260503051504 57 83 0.0 0.0 0.00 0.00 0.00 95 1012.9
20260503051403 57 83 0.0 0.0 0.00 0.00 0.00 95 1012.8
20260503051302 57 83 0.0 0.0 0.00 0.00 0.00 94 1012.9
20260503051202 57 83 0.0 0.0 0.00 0.00 0.00 94 1012.9
20260503051104 57 83 0.0 0.0 0.00 0.00 0.00 94 1012.9
20260503051004 57 83 0.0 0.0 0.00 0.00 0.00 94 1012.9
20260503050903 57 83 0.0 0.0 0.00 0.00 0.00 94 1012.9
20260503050804 57 83 0.0 0.0 0.00 0.00 0.00 94 1012.9
20260503050704 57 83 0.0 0.0 0.00 0.00 0.00 94 1013.0
20260503050603 57 83 0.0 0.0 0.00 0.00 0.00 94 1013.0
20260503050504 57 83 0.0 0.0 0.00 0.00 0.00 94 1013.0
20260503050403 57 83 0.0 0.0 0.00 0.00 0.00 94 1013.0
20260503050303 57 83 0.0 0.0 0.00 0.00 0.00 94 1013.0
20260503050203 57 83 0.0 0.0 0.00 0.00 0.00 94 1013.0
20260503050104 57 83 0.0 0.0 0.00 0.00 0.00 94 1013.0
20260503050003 57 83 0.0 0.0 0.00 0.00 0.00 94 1012.9
20260503045904 57 83 0.0 0.0 0.00 0.00 0.00 94 1013.0
20260503045803 57 83 0.0 0.0 0.00 0.00 0.00 94 1013.1
20260503045703 57 83 0.0 0.0 0.00 0.00 0.00 94 1013.1
20260503045604 57 83 0.0 0.0 0.00 0.00 0.00 94 1013.1
20260503045503 57 83 0.0 0.0 0.00 0.00 0.00 94 1013.1
20260503045403 57 83 0.0 0.0 0.00 0.00 0.00 94 1013.1
20260503045305 57 83 0.0 0.0 0.00 0.00 0.00 94 1013.0
20260503045202 57 83 0.0 0.0 0.00 0.00 0.00 94 1012.9
20260503045103 57 83 0.0 0.0 0.00 0.00 0.00 94 1012.9
20260503045004 57 83 0.0 0.0 0.00 0.00 0.00 94 1012.9
20260503044903 57 83 0.0 0.0 0.00 0.00 0.00 94 1012.9
20260503044802 57 83 0.0 0.0 0.00 0.00 0.00 94 1012.9
20260503044703 58 83 0.0 0.0 0.00 0.00 0.00 94 1012.8
20260503044603 58 83 0.0 0.0 0.00 0.00 0.00 94 1012.9
20260503044505 58 83 0.0 0.0 0.00 0.00 0.00 94 1012.9
20260503044404 58 83 0.0 0.0 0.00 0.00 0.00 94 1012.9
20260503044306 58 83 0.0 0.0 0.00 0.00 0.00 94 1012.9
20260503044203 58 83 0.0 0.0 0.00 0.00 0.00 94 1012.9
20260503044103 58 83 0.0 0.0 0.00 0.00 0.00 94 1012.9
20260503044002 58 83 0.0 0.0 0.00 0.00 0.00 94 1012.9
20260503043902 58 83 0.0 0.0 0.00 0.00 0.00 94 1012.9
20260503043751 58 83 0.0 0.0 0.00 0.00 0.00 94 1012.9
20260503043650 58 83 0.0 0.0 0.00 0.00 0.00 93 1012.9
20260503043550 58 83 0.0 0.0 0.00 0.00 0.00 93 1012.9
20260503043452 58 83 0.0 0.0 0.00 0.00 0.00 93 1012.9
20260503043352 58 83 0.0 0.0 0.00 0.00 0.00 93 1012.9
20260503043251 58 83 0.0 0.0 0.00 0.00 0.00 93 1012.8
20260503043149 58 83 0.0 0.0 0.00 0.00 0.00 93 1012.9
20260503043051 58 83 0.0 0.0 0.00 0.00 0.00 93 1012.8
20260503042950 58 83 0.0 0.0 0.00 0.00 0.00 93 1012.9
20260503042849 58 83 0.0 0.0 0.00 0.00 0.00 93 1012.8
20260503042749 58 83 0.0 0.0 0.00 0.00 0.00 93 1012.9
20260503042650 58 83 0.0 0.0 0.00 0.00 0.00 93 1012.8
20260503042549 58 83 0.0 0.0 0.00 0.00 0.00 93 1012.8
20260503042450 58 83 0.0 0.0 0.00 0.00 0.00 93 1012.8
20260503042350 58 83 0.0 0.0 0.00 0.00 0.00 93 1012.8
20260503042250 58 83 0.0 0.0 0.00 0.00 0.00 93 1012.8
20260503042150 58 83 0.0 0.0 0.00 0.00 0.00 93 1012.8
20260503042051 58 83 0.0 0.0 0.00 0.00 0.00 93 1012.8
20260503041951 58 83 0.0 0.0 0.00 0.00 0.00 93 1012.8
20260503041850 58 83 0.0 0.0 0.00 0.00 0.00 93 1012.8
20260503041751 58 83 0.0 0.0 0.00 0.00 0.00 93 1012.8
20260503041649 58 83 0.0 0.0 0.00 0.00 0.00 93 1012.8
20260503041551 58 83 0.0 0.0 0.00 0.00 0.00 93 1012.8
20260503041450 58 83 0.0 0.0 0.00 0.00 0.00 93 1012.7
20260503041352 58 83 0.0 0.0 0.00 0.00 0.00 93 1012.8
20260503041251 58 83 0.0 0.0 0.00 0.00 0.00 93 1012.8
20260503041150 58 83 0.0 0.0 0.00 0.00 0.00 93 1012.7
20260503041049 58 83 0.0 0.0 0.00 0.00 0.00 93 1012.8
20260503040957 58 83 0.0 0.0 0.00 0.00 0.00 92 1012.7
20260503040849 59 83 0.0 0.0 0.00 0.00 0.00 92 1012.7
20260503040750 59 83 0.0 0.0 0.00 0.00 0.00 92 1012.8
20260503040649 59 83 0.0 0.0 0.00 0.00 0.00 92 1012.7
20260503040550 59 83 0.0 0.0 0.00 0.00 0.00 92 1012.8
20260503040449 59 83 0.0 0.0 0.00 0.00 0.00 92 1012.7
20260503040349 59 83 0.0 0.0 0.00 0.00 0.00 92 1012.7
20260503040249 59 83 0.0 0.0 0.00 0.00 0.00 92 1012.8
20260503040149 59 83 0.0 0.0 0.00 0.00 0.00 92 1012.8
20260503040049 59 83 0.0 0.0 0.00 0.00 0.00 92 1012.7
20260503035949 59 83 0.0 0.0 0.00 0.00 0.00 92 1012.8
20260503035848 59 83 0.0 0.0 0.00 0.00 0.00 92 1012.7
20260503035750 59 83 0.0 0.0 0.00 0.00 0.00 92 1012.7
20260503035650 59 83 0.0 0.0 0.00 0.00 0.00 92 1012.7
20260503035549 59 83 0.0 0.0 0.00 0.00 0.00 92 1012.7
20260503035449 59 83 0.0 0.0 0.00 0.00 0.00 92 1012.7
20260503035350 59 83 0.0 0.0 0.00 0.00 0.00 92 1012.8
20260503035250 59 83 0.0 0.0 0.00 0.00 0.00 92 1012.8
20260503035149 59 83 0.0 0.0 0.00 0.00 0.00 92 1012.8
20260503035050 59 83 0.0 0.0 0.00 0.00 0.00 92 1012.8
20260503034949 59 83 0.0 0.0 0.00 0.00 0.00 91 1012.8
20260503034850 59 83 0.0 0.0 0.00 0.00 0.00 91 1012.8
20260503034750 59 83 0.0 0.0 0.00 0.00 0.00 91 1012.8
20260503034648 59 83 0.0 0.0 0.00 0.00 0.00 91 1012.8
20260503034549 59 83 0.0 0.0 0.00 0.00 0.00 91 1012.8
20260503034448 59 83 0.0 0.0 0.00 0.00 0.00 91 1012.8
20260503034348 59 83 0.0 0.0 0.00 0.00 0.00 91 1012.8
20260503034250 59 83 0.0 0.0 0.00 0.00 0.00 91 1012.8
20260503034149 59 83 0.0 0.0 0.00 0.00 0.00 91 1012.8
20260503034048 60 83 0.0 0.0 0.00 0.00 0.00 91 1012.7
20260503033948 60 83 0.0 0.0 0.00 0.00 0.00 91 1012.7
20260503033848 60 83 0.0 0.0 0.00 0.00 0.00 91 1012.7
20260503033749 60 83 0.0 0.0 0.00 0.00 0.00 91 1012.6
20260503033648 60 83 0.0 0.0 0.00 0.00 0.00 91 1012.6
20260503033549 60 83 0.0 0.0 0.00 0.00 0.00 91 1012.6
20260503033450 60 83 0.0 0.0 0.00 0.00 0.00 91 1012.5
20260503033349 60 83 0.0 0.0 0.00 0.00 0.00 91 1012.4
20260503033249 60 83 0.0 0.0 0.00 0.00 0.00 91 1012.5
20260503033148 60 83 0.0 0.0 0.00 0.00 0.00 91 1012.4
20260503033049 60 83 0.0 0.0 0.00 0.00 0.00 91 1012.4
20260503032949 60 83 0.0 0.0 0.00 0.00 0.00 91 1012.3
20260503032848 60 83 0.0 0.0 0.00 0.00 0.00 91 1012.3
20260503032748 60 83 0.0 0.0 0.00 0.00 0.00 91 1012.4
20260503032650 60 83 0.0 0.0 0.00 0.00 0.00 91 1012.3
20260503032548 60 83 0.0 0.0 0.00 0.00 0.00 90 1012.4
20260503032448 60 83 0.0 0.0 0.00 0.00 0.00 90 1012.3
20260503032348 60 83 0.0 0.0 0.00 0.00 0.00 90 1012.3
20260503032248 60 83 0.0 0.0 0.00 0.00 0.00 90 1012.3
20260503032148 60 83 0.0 0.0 0.00 0.00 0.00 90 1012.3
20260503032051 60 83 0.0 0.0 0.00 0.00 0.00 90 1012.3
20260503031949 60 83 0.0 0.0 0.00 0.00 0.00 90 1012.3
20260503031847 60 83 0.0 0.0 0.00 0.00 0.00 90 1012.3
20260503031749 60 83 0.0 0.0 0.00 0.00 0.00 90 1012.3
20260503031648 60 83 0.0 0.0 0.00 0.00 0.00 90 1012.3
20260503031548 60 83 0.0 0.0 0.00 0.00 0.00 90 1012.2
20260503031449 60 83 0.0 0.0 0.00 0.00 0.00 89 1012.2
20260503031350 60 83 0.0 0.0 0.00 0.00 0.00 89 1012.2
20260503031247 61 83 0.0 0.0 0.00 0.00 0.00 89 1012.2
20260503031149 61 83 0.0 0.0 0.00 0.00 0.00 89 1012.2
20260503031051 61 83 0.0 0.0 0.00 0.00 0.00 89 1012.2
20260503030948 61 83 0.0 0.0 0.00 0.00 0.00 89 1012.2
20260503030847 61 83 0.0 0.0 0.00 0.00 0.00 89 1012.2
20260503030748 61 83 0.0 0.0 0.00 0.00 0.00 89 1012.2
20260503030650 61 83 0.0 0.0 0.00 0.00 0.00 89 1012.2
20260503030549 61 83 0.0 0.0 0.00 0.00 0.00 89 1012.3
20260503030447 61 83 0.0 0.0 0.00 0.00 0.00 89 1012.2
20260503030348 61 83 0.0 0.0 0.00 0.00 0.00 89 1012.3
20260503030250 61 83 0.0 0.0 0.00 0.00 0.00 89 1012.3
20260503030147 61 83 0.0 0.0 0.00 0.00 0.00 89 1012.3
20260503030049 61 83 0.0 0.0 0.00 0.00 0.00 89 1012.4
20260503025948 61 83 0.0 0.0 0.00 0.00 0.00 89 1012.4
20260503025847 61 83 0.0 0.0 0.00 0.00 0.00 89 1012.3
20260503025748 61 83 0.0 0.0 0.00 0.00 0.00 89 1012.3
20260503025649 61 83 0.0 0.0 0.00 0.00 0.00 89 1012.3
20260503025547 61 83 0.0 0.0 0.00 0.00 0.00 89 1012.3
20260503025447 62 83 0.0 0.0 0.00 0.00 0.00 88 1012.3
20260503025351 62 83 0.0 0.0 0.00 0.00 0.00 88 1012.3
20260503025249 62 83 0.0 0.0 0.00 0.00 0.00 88 1012.3
20260503025150 62 83 0.0 0.0 0.00 0.00 0.00 88 1012.3
20260503025047 62 83 0.0 0.0 0.00 0.00 0.00 88 1012.1
20260503024947 62 83 0.0 0.0 0.00 0.00 0.00 88 1012.2
20260503024849 62 83 0.0 0.0 0.00 0.00 0.00 88 1012.1
20260503024747 62 83 0.0 0.0 0.00 0.00 0.00 88 1012.1
20260503024647 62 83 0.0 0.0 0.00 0.00 0.00 88 1012.1
20260503024549 62 83 0.0 0.0 0.00 0.00 0.00 88 1012.0
20260503024448 62 83 0.0 0.0 0.00 0.00 0.00 88 1012.1
20260503024347 62 83 0.0 0.0 0.00 0.00 0.00 88 1012.2
20260503024248 62 83 0.0 0.0 0.00 0.00 0.00 88 1012.3
20260503024147 62 83 0.0 0.0 0.00 0.00 0.00 88 1012.3
20260503024046 62 83 0.0 0.0 0.00 0.00 0.00 88 1012.3
20260503023949 62 83 0.0 0.0 0.00 0.00 0.00 88 1012.3
20260503023847 62 83 0.0 0.0 0.00 0.00 0.00 87 1012.2
20260503023748 62 83 0.0 0.0 0.00 0.00 0.00 87 1012.2
20260503023650 62 83 0.0 0.0 0.00 0.00 0.00 87 1012.2
20260503023547 62 83 0.0 0.0 0.00 0.00 0.00 87 1012.2
20260503023447 63 83 0.0 0.0 0.00 0.00 0.00 87 1012.2
20260503023347 63 83 0.0 0.0 0.00 0.00 0.00 87 1012.2
20260503023248 63 83 0.0 0.0 0.00 0.00 0.00 87 1012.3
20260503023147 63 83 0.0 0.0 0.00 0.00 0.00 87 1012.3
20260503023048 63 83 0.0 0.0 0.00 0.00 0.00 87 1012.3
20260503022947 63 83 0.0 0.0 0.00 0.00 0.00 87 1012.3
20260503022848 63 83 0.0 0.0 0.00 0.00 0.00 87 1012.3
20260503022746 63 83 0.0 0.0 0.00 0.00 0.00 86 1012.2
20260503022649 63 83 0.0 0.0 0.00 0.00 0.00 86 1012.2
20260503022546 63 83 0.0 0.0 0.00 0.00 0.00 86 1012.2
20260503022448 63 83 0.0 0.0 0.00 0.00 0.00 86 1012.1
20260503022347 63 83 0.0 0.0 0.00 0.00 0.00 86 1012.1
20260503022248 64 83 0.0 0.0 0.00 0.00 0.00 86 1012.1
20260503022148 64 83 0.0 0.0 0.00 0.00 0.00 86 1012.0
20260503022047 64 83 0.0 0.0 0.00 0.00 0.00 86 1012.1
20260503021947 64 83 0.0 0.0 0.00 0.00 0.00 86 1012.0
20260503021847 64 83 0.0 0.0 0.00 0.00 0.00 85 1012.0
20260503021748 64 83 0.0 0.0 0.00 0.00 0.00 85 1011.9
20260503021648 64 83 0.0 0.0 0.00 0.00 0.00 85 1011.9
20260503021548 64 83 0.0 0.0 0.00 0.00 0.00 85 1011.9
20260503021448 64 83 0.0 0.0 0.00 0.00 0.00 85 1011.9
20260503021346 64 83 0.0 0.0 0.00 0.00 0.00 85 1011.8
20260503021247 64 83 0.0 0.0 0.00 0.00 0.00 85 1011.7
20260503021149 64 83 0.0 0.0 0.00 0.00 0.00 85 1011.8
20260503021047 64 83 0.0 0.0 0.00 0.00 0.00 85 1011.8
20260503020947 64 83 0.0 0.0 0.00 0.00 0.00 85 1011.8
20260503020847 65 83 0.0 0.0 0.00 0.00 0.00 85 1011.8
20260503020746 65 83 0.0 0.0 0.00 0.00 0.00 85 1011.8
20260503020647 65 83 0.0 0.0 0.00 0.00 0.00 85 1011.9
20260503020547 65 83 0.0 0.0 0.00 0.00 0.00 84 1011.8
20260503020443 65 83 0.0 0.0 0.00 0.00 0.00 84 1011.8
20260503020342 65 83 0.0 0.0 0.00 0.00 0.00 84 1011.8
20260503020240 65 83 0.0 0.0 0.00 0.00 0.00 84 1011.8
20260503020134 65 83 0.0 0.0 0.00 0.00 0.00 84 1011.9
20260503020034 65 83 0.0 0.0 0.00 0.00 0.00 83 1011.9
20260503015933 65 83 0.0 0.0 0.00 0.00 0.00 83 1011.8
20260503015832 65 83 0.0 0.0 0.00 0.00 0.00 83 1011.8
20260503015730 65 83 0.0 0.0 0.00 0.00 0.00 83 1011.8
20260503015632 65 83 0.0 0.0 0.00 0.00 0.00 83 1011.8
20260503015532 65 83 0.0 0.0 0.00 0.00 0.00 83 1011.8
20260503015423 66 83 0.0 0.0 0.00 0.00 0.00 83 1011.7
20260503015321 66 83 0.0 0.0 0.00 0.00 0.00 83 1011.7
20260503015219 66 83 0.0 0.0 0.00 0.00 0.00 83 1011.7
20260503015114 66 83 0.0 0.0 0.00 0.00 0.00 83 1011.7
20260503015010 66 83 0.0 0.0 0.00 0.00 0.00 83 1011.7
20260503014909 66 83 0.0 0.0 0.00 0.00 0.00 83 1011.7
20260503014804 66 83 0.0 0.0 0.00 0.00 0.00 82 1011.7
20260503014702 67 83 0.0 0.0 0.00 0.00 0.00 82 1011.7
20260503014603 67 83 0.0 0.0 0.00 0.00 0.00 82 1011.6
20260503014504 67 83 0.0 0.0 0.00 0.00 0.00 82 1011.6
20260503014403 67 83 0.0 0.0 0.00 0.00 0.00 82 1011.6
20260503014302 67 83 0.0 0.0 0.00 0.00 0.00 82 1011.6
20260503014203 67 83 0.0 0.0 0.00 0.00 0.00 82 1011.6
20260503014104 67 83 0.0 0.0 0.00 0.00 0.00 82 1011.6
20260503014003 67 83 0.0 0.0 0.00 0.00 0.00 82 1011.5
20260503013903 67 83 0.0 0.0 0.00 0.00 0.00 82 1011.6
20260503013807 67 83 0.0 0.0 0.00 0.00 0.00 81 1011.6
20260503013704 67 83 0.0 0.0 0.00 0.00 0.00 81 1011.5
20260503013603 67 83 0.0 0.0 0.00 0.00 0.00 81 1011.5
20260503013502 67 83 0.0 0.0 0.00 0.00 0.00 81 1011.5
20260503013400 68 83 0.0 0.0 0.00 0.00 0.00 81 1011.5
20260503013257 68 83 0.0 0.0 0.00 0.00 0.00 81 1011.5
20260503013147 68 83 0.0 0.0 0.00 0.00 0.00 81 1011.5
20260503013047 68 83 0.0 0.0 0.00 0.00 0.00 81 1011.5
20260503012946 68 83 0.0 0.0 0.00 0.00 0.00 80 1011.5
20260503012846 68 83 0.0 0.0 0.00 0.00 0.00 80 1011.5
20260503012748 68 83 0.0 0.0 0.00 0.00 0.00 80 1011.5
20260503012645 68 83 0.0 0.0 0.00 0.00 0.00 80 1011.5
20260503012545 68 83 0.0 0.0 0.00 0.00 0.00 80 1011.4
20260503012446 68 83 0.0 0.0 0.00 0.00 0.00 80 1011.4
20260503012347 69 83 0.0 0.0 0.00 0.00 0.00 80 1011.4
20260503012245 69 83 0.0 0.0 0.00 0.00 0.00 80 1011.4
20260503012148 69 83 0.0 0.0 0.00 0.00 0.00 80 1011.4
20260503012045 69 83 0.0 0.0 0.00 0.00 0.00 79 1011.4
20260503011945 69 83 0.0 0.0 0.00 0.00 0.00 79 1011.4
20260503011845 69 83 0.0 0.0 0.00 0.00 0.00 79 1011.4
20260503011747 69 83 0.0 0.0 0.00 0.00 0.00 79 1011.3
20260503011645 69 83 0.0 0.0 0.00 0.00 0.00 79 1011.4
20260503011546 69 83 0.0 0.0 0.00 0.00 0.00 78 1011.3
20260503011446 69 83 0.0 0.0 0.00 0.00 0.00 78 1011.3
20260503011346 69 83 0.0 0.0 0.00 0.00 0.00 78 1011.3
20260503011247 69 83 0.0 0.0 0.00 0.00 0.00 78 1011.3
20260503011147 69 83 0.0 0.0 0.00 0.00 0.00 78 1011.3
20260503011045 69 83 0.0 0.0 0.00 0.00 0.00 78 1011.3
20260503010946 70 83 0.0 0.0 0.00 0.00 0.00 78 1011.4
20260503010847 70 83 0.0 0.0 0.00 0.00 0.00 78 1011.3
20260503010745 70 83 0.0 0.0 0.00 0.00 0.00 77 1011.3
20260503010646 70 83 0.0 0.0 0.00 0.00 0.00 77 1011.2
20260503010546 70 83 0.0 0.0 0.00 0.00 0.00 77 1011.3
20260503010445 70 83 0.0 0.0 0.00 0.00 0.00 77 1011.3
20260503010347 70 83 0.0 0.0 0.00 0.00 0.00 77 1011.3
20260503010246 70 83 0.0 0.0 0.00 0.00 0.00 77 1011.3
20260503010145 70 83 0.0 0.0 0.00 0.00 0.00 77 1011.2
20260503010046 70 83 0.0 0.0 0.00 0.00 0.00 77 1011.2
20260503005947 70 83 0.0 0.0 0.00 0.00 0.00 76 1011.2
20260503005846 70 83 0.0 0.0 0.00 0.00 0.00 76 1011.2
20260503005746 71 83 0.0 0.0 0.00 0.00 0.00 76 1011.2
20260503005647 71 83 0.0 0.0 0.00 0.00 0.00 76 1011.2
20260503005550 71 83 0.0 0.0 0.00 0.00 0.00 76 1011.2
20260503005445 71 83 0.0 0.0 0.00 0.00 0.00 76 1011.2
20260503005345 71 83 0.0 0.0 0.00 0.00 0.00 76 1011.2
20260503005244 71 83 0.0 0.0 0.00 0.00 0.00 76 1011.1
20260503005145 71 83 0.0 0.0 0.00 0.00 0.00 76 1011.1
20260503005046 71 83 0.0 0.0 0.00 0.00 0.00 76 1011.0
20260503004944 71 83 0.0 0.0 0.00 0.00 0.00 76 1011.0
20260503004846 71 83 0.0 0.0 0.00 0.00 0.00 76 1011.1
20260503004746 71 83 0.0 0.0 0.00 0.00 0.00 76 1011.0
20260503004644 71 83 0.0 0.0 0.00 0.00 0.00 76 1011.1
20260503004546 71 83 0.0 0.0 0.00 0.00 0.00 75 1011.0
20260503004444 71 83 0.0 0.0 0.00 0.00 0.00 75 1011.0
20260503004344 71 83 0.0 0.0 0.00 0.00 0.00 75 1011.0
20260503004237 72 83 0.0 0.0 0.00 0.00 0.00 76 1011.0
20260503004132 72 83 0.0 0.0 0.00 0.00 0.00 76 1010.9
20260503004030 72 83 0.0 0.0 0.00 0.00 0.00 76 1010.9
20260503003932 72 83 0.0 0.0 0.00 0.00 0.00 76 1010.9
20260503003832 72 83 0.0 0.0 0.00 0.00 0.00 75 1010.9
20260503003729 72 83 0.0 0.0 0.00 0.00 0.00 75 1011.0
20260503003626 72 83 0.0 0.0 0.00 0.00 0.00 75 1011.0
20260503003524 72 83 0.0 0.0 0.00 0.00 0.00 75 1010.9
20260503003422 72 83 0.0 0.0 0.00 0.00 0.00 75 1010.9
20260503003321 72 83 0.0 0.0 0.00 0.00 0.00 75 1010.9
20260503003218 72 83 0.0 0.0 0.00 0.00 0.00 75 1010.8
20260503003111 72 83 0.0 0.0 0.00 0.00 0.00 75 1010.9
20260503003006 72 83 0.0 0.0 0.00 0.00 0.00 75 1010.9
20260503002903 72 83 0.0 0.0 0.00 0.00 0.00 75 1010.8
20260503002804 72 83 0.0 0.0 0.00 0.00 0.00 75 1010.8
20260503002702 72 83 0.0 0.0 0.00 0.00 0.00 75 1010.8
20260503002604 72 83 0.0 0.0 0.00 0.00 0.00 75 1010.8
20260503002504 72 83 0.0 0.0 0.00 0.00 0.00 75 1010.8
20260503002403 72 83 0.0 0.0 0.00 0.00 0.00 75 1010.9
20260503002305 73 83 0.0 0.0 0.00 0.00 0.00 75 1010.8
20260503002203 73 83 0.0 0.0 0.00 0.00 0.00 75 1010.8
20260503002103 73 83 0.0 0.0 0.00 0.00 0.00 75 1010.8
20260503002004 73 83 0.0 0.0 0.00 0.00 0.00 75 1010.8
20260503001904 73 83 0.0 0.0 0.00 0.00 0.00 75 1010.8
20260503001803 73 83 0.0 0.0 0.00 0.00 0.00 74 1010.8
20260503001704 73 83 0.0 0.0 0.00 0.00 0.00 74 1010.8
20260503001602 73 83 0.0 0.0 0.00 0.00 0.00 74 1010.7
20260503001505 73 83 0.0 0.0 0.00 0.00 0.00 74 1010.8
20260503001404 73 83 0.0 2.0 0.00 0.00 0.00 74 1010.8
20260503001303 73 83 0.0 2.0 0.00 0.00 0.00 74 1010.7
20260503001204 73 83 0.0 2.0 0.00 0.00 0.00 74 1010.8
20260503001103 73 83 0.0 2.0 0.00 0.00 0.00 74 1010.8
20260503001004 73 83 0.0 2.0 0.00 0.00 0.00 74 1010.8
20260503000902 73 83 0.0 2.0 0.00 0.00 0.00 74 1010.8
20260503000802 73 83 0.0 2.0 0.00 0.00 0.00 74 1010.7
20260503000703 73 83 0.0 2.0 0.00 0.00 0.00 74 1010.8
20260503000604 73 83 0.0 2.0 0.00 0.00 0.00 74 1010.7
20260503000506 73 83 0.0 2.0 0.00 0.00 0.00 74 1010.7
20260503000403 73 142 0.0 1.0 0.00 0.00 0.00 74 1010.6
20260503000304 73 142 0.0 1.0 0.00 0.00 0.00 74 1010.6
20260503000203 73 142 0.0 1.0 0.00 0.00 0.00 74 1010.6
20260503000104 73 142 0.0 1.0 0.00 0.00 0.00 74 1010.6
20260503000005 73 142 0.0 1.0 0.00 0.00 0.00 74 1010.6
20260502235903 73 142 0.0 1.0 0.00 0.00 0.00 74 1010.6
20260502235803 73 142 0.0 1.0 0.00 0.00 0.00 74 1010.7
20260502235704 73 142 0.0 1.0 0.00 0.00 0.00 74 1010.7
20260502235602 73 142 0.0 1.0 0.00 0.00 0.00 74 1010.6
20260502235503 73 3 0.0 1.0 0.00 0.00 0.00 74 1010.6
20260502235404 73 96 0.0 1.0 0.00 0.00 0.00 74 1010.6
20260502235301 73 96 0.0 1.0 0.00 0.00 0.00 74 1010.6
20260502235202 73 96 0.0 1.0 0.00 0.00 0.00 74 1010.6
20260502235103 73 96 0.0 1.0 0.00 0.00 0.00 74 1010.6
20260502235003 74 96 0.0 1.0 0.00 0.00 0.00 74 1010.6
20260502234903 74 97 0.0 1.0 0.00 0.00 0.00 74 1010.6
20260502234803 74 97 0.0 1.0 0.00 0.00 0.00 73 1010.6
20260502234702 74 97 0.0 1.0 0.00 0.00 0.00 73 1010.6
20260502234604 74 97 0.0 2.0 0.00 0.00 0.00 73 1010.6
20260502234503 74 97 0.0 6.0 0.00 0.00 0.00 73 1010.6
20260502234402 74 97 0.0 6.0 0.00 0.00 0.00 73 1010.5
20260502234303 74 97 0.0 6.0 0.00 0.00 0.00 73 1010.5
20260502234204 74 97 0.0 6.0 0.00 0.00 0.00 73 1010.5
20260502234102 74 97 0.0 6.0 0.00 0.00 0.00 73 1010.5
20260502234008 74 76 0.0 6.0 0.00 0.00 0.00 73 1010.5
20260502233903 74 76 0.0 6.0 0.00 0.00 0.00 73 1010.5
20260502233803 74 76 1.0 6.0 0.00 0.00 0.00 73 1010.5
20260502233703 74 78 2.0 6.0 0.00 0.00 0.00 73 1010.4
20260502233602 74 76 2.0 6.0 0.00 0.00 0.00 73 1010.5
20260502233503 74 107 1.0 5.0 0.00 0.00 0.00 73 1010.4
20260502233403 74 99 1.0 3.0 0.00 0.00 0.00 73 1010.5
20260502233302 74 0 0.0 3.0 0.00 0.00 0.00 73 1010.4
20260502233201 74 80 0.0 2.0 0.00 0.00 0.00 73 1010.4
20260502233102 74 80 0.0 2.0 0.00 0.00 0.00 73 1010.5
20260502233004 74 80 0.0 2.0 0.00 0.00 0.00 73 1010.5
20260502232903 74 82 0.0 2.0 0.00 0.00 0.00 72 1010.5
20260502232759 74 82 0.0 2.0 0.00 0.00 0.00 72 1010.5
20260502232642 74 82 1.0 2.0 0.00 0.00 0.00 72 1010.5
20260502232543 74 80 0.0 2.0 0.00 0.00 0.00 72 1010.5
20260502232443 74 0 0.0 3.0 0.00 0.00 0.00 73 1010.5
20260502232342 74 0 0.0 3.0 0.00 0.00 0.00 73 1010.5
20260502232243 74 93 0.0 3.0 0.00 0.00 0.00 72 1010.5
20260502232144 74 93 0.0 3.0 0.00 0.00 0.00 72 1010.5
20260502232043 74 93 0.0 3.0 0.00 0.00 0.00 72 1010.5
20260502231942 74 93 0.0 3.0 0.00 0.00 0.00 73 1010.5
20260502231844 74 100 0.0 3.0 0.00 0.00 0.00 73 1010.5
20260502231742 74 100 0.0 3.0 0.00 0.00 0.00 73 1010.6
20260502231642 74 100 1.0 3.0 0.00 0.00 0.00 73 1010.6
20260502231543 74 96 0.0 4.0 0.00 0.00 0.00 73 1010.6
20260502231447 74 257 0.0 4.0 0.00 0.00 0.00 73 1010.6
20260502231342 74 257 0.0 4.0 0.00 0.00 0.00 73 1010.5
20260502231245 74 257 0.0 4.0 0.00 0.00 0.00 73 1010.5
20260502231143 74 257 0.0 4.0 0.00 0.00 0.00 73 1010.5
20260502231042 74 257 0.0 4.0 0.00 0.00 0.00 72 1010.5
20260502230943 74 257 0.0 4.0 0.00 0.00 0.00 72 1010.5
20260502230842 74 257 1.0 5.0 0.00 0.00 0.00 72 1010.5
20260502230743 74 258 1.0 7.0 0.00 0.00 0.00 72 1010.5
20260502230645 74 258 1.0 7.0 0.00 0.00 0.00 73 1010.5
20260502230545 74 100 1.0 7.0 0.00 0.00 0.00 73 1010.5
20260502230442 74 100 1.0 7.0 0.00 0.00 0.00 73 1010.5
20260502230343 74 97 0.0 7.0 0.00 0.00 0.00 72 1010.5
20260502230244 74 99 0.0 7.0 0.00 0.00 0.00 72 1010.4
20260502230143 74 99 0.0 7.0 0.00 0.00 0.00 72 1010.4
20260502230044 74 99 1.0 7.0 0.00 0.00 0.00 72 1010.5
20260502225943 75 99 2.0 7.0 0.00 0.00 0.00 72 1010.4
20260502225842 75 124 2.0 7.0 0.00 0.00 0.00 72 1010.5
20260502225747 74 183 1.0 5.0 0.00 0.00 0.00 72 1010.5
20260502225642 75 216 1.0 5.0 0.00 0.00 0.00 72 1010.5
20260502225543 74 69 2.0 5.0 0.00 0.00 0.00 71 1010.5
20260502225441 75 62 2.0 5.0 0.00 0.00 0.00 71 1010.5
20260502225342 75 83 2.0 5.0 0.00 0.00 0.00 71 1010.5
20260502225241 75 80 2.0 5.0 0.00 0.00 0.00 71 1010.5
20260502225144 75 68 1.0 5.0 0.00 0.00 0.00 72 1010.5
20260502225043 75 93 1.0 5.0 0.00 0.00 0.00 72 1010.5
20260502224940 75 45 0.0 5.0 0.00 0.00 0.00 72 1010.5
20260502224840 75 313 1.0 5.0 0.00 0.00 0.00 71 1010.5
20260502224734 75 306 2.0 5.0 0.00 0.00 0.00 72 1010.5
20260502224633 75 324 1.0 5.0 0.00 0.00 0.00 72 1010.6
20260502224532 75 0 1.0 5.0 0.00 0.00 0.00 72 1010.5
20260502224432 75 357 2.0 5.0 0.00 0.00 0.00 72 1010.5
20260502224331 75 17 2.0 5.0 0.00 0.00 0.00 72 1010.5
20260502224231 75 6 1.0 5.0 0.00 0.00 0.00 72 1010.5
20260502224131 75 49 1.0 5.0 0.00 0.00 0.00 72 1010.5
20260502224033 75 49 2.0 5.0 0.00 0.00 0.00 72 1010.5
20260502223931 75 341 2.0 5.0 0.00 0.00 0.00 72 1010.5
20260502223832 75 338 1.0 4.0 0.00 0.00 0.00 72 1010.5
20260502223732 75 336 0.0 4.0 0.00 0.00 0.00 72 1010.6
20260502223631 75 100 0.0 4.0 0.00 0.00 0.00 72 1010.5
20260502223533 75 100 1.0 4.0 0.00 0.00 0.00 72 1010.5
20260502223434 75 100 1.0 4.0 0.00 0.00 0.00 72 1010.6
20260502223332 75 93 1.0 4.0 0.00 0.00 0.00 72 1010.5
20260502223232 75 92 2.0 4.0 0.00 0.00 0.00 72 1010.5
20260502223128 75 90 2.0 4.0 0.00 0.00 0.00 72 1010.5
20260502223027 75 11 1.0 4.0 0.00 0.00 0.00 72 1010.5
20260502222927 75 353 1.0 4.0 0.00 0.00 0.00 72 1010.5
20260502222825 75 345 2.0 4.0 0.00 0.00 0.00 72 1010.6
20260502222726 75 134 1.0 4.0 0.00 0.00 0.00 72 1010.6
20260502222625 75 17 0.0 4.0 0.00 0.00 0.00 72 1010.6
20260502222522 75 17 0.0 4.0 0.00 0.00 0.00 72 1010.5
20260502222415 75 16 2.0 4.0 0.00 0.00 0.00 72 1010.6
20260502222313 75 24 2.0 4.0 0.00 0.00 0.00 72 1010.6
20260502222212 75 103 1.0 4.0 0.00 0.00 0.00 72 1010.6
20260502222110 75 55 1.0 4.0 0.00 0.00 0.00 72 1010.6
20260502222004 75 55 2.0 4.0 0.00 0.00 0.00 72 1010.6
20260502221903 75 138 2.0 4.0 0.00 0.00 0.00 72 1010.6
20260502221803 75 73 2.0 6.0 0.00 0.00 0.00 72 1010.6
20260502221702 75 124 0.0 6.0 0.00 0.00 0.00 72 1010.6
20260502221604 75 113 0.0 6.0 0.00 0.00 0.00 72 1010.6
20260502221503 75 113 0.0 6.0 0.00 0.00 0.00 72 1010.6
20260502221404 75 118 0.0 6.0 0.00 0.00 0.00 72 1010.6
20260502221304 75 118 0.0 6.0 0.00 0.00 0.00 72 1010.6
20260502221204 75 118 0.0 6.0 0.00 0.00 0.00 72 1010.7
20260502221104 75 118 1.0 6.0 0.00 0.00 0.00 71 1010.6
20260502221004 75 118 2.0 6.0 0.00 0.00 0.00 71 1010.7
20260502220904 75 20 2.0 6.0 0.00 0.00 0.00 71 1010.7
20260502220804 75 59 2.0 5.0 0.00 0.00 0.00 71 1010.8
20260502220704 75 114 1.0 3.0 0.00 0.00 0.00 72 1010.6
20260502220603 75 307 1.0 3.0 0.00 0.00 0.00 72 1010.7
20260502220503 75 307 1.0 5.0 0.00 0.00 0.00 72 1010.8
20260502220403 75 96 0.0 5.0 0.00 0.00 0.00 72 1010.7
20260502220301 75 96 1.0 5.0 0.00 0.00 0.00 72 1010.7
20260502220202 75 96 2.0 5.0 0.00 0.00 0.00 72 1010.7
20260502220104 75 13 1.0 5.0 0.00 0.00 0.00 72 1010.7
20260502220003 75 103 1.0 5.0 0.00 0.00 0.00 72 1010.7
20260502215905 75 106 1.0 5.0 0.00 0.00 0.00 72 1010.6
20260502215742 75 106 2.0 5.0 0.00 0.00 0.00 72 1010.7
20260502215642 75 34 3.0 5.0 0.00 0.00 0.00 72 1010.7
20260502215541 75 35 2.0 5.0 0.00 0.00 0.00 72 1010.7
20260502215442 75 200 2.0 3.0 0.00 0.00 0.00 72 1010.7
20260502215342 75 117 2.0 3.0 0.00 0.00 0.00 72 1010.6
20260502215241 75 86 1.0 3.0 0.00 0.00 0.00 72 1010.7
20260502215143 75 278 2.0 3.0 0.00 0.00 0.00 72 1010.6
20260502215042 75 276 1.0 3.0 0.00 0.00 0.00 72 1010.6
20260502214940 75 152 1.0 3.0 0.00 0.00 0.00 72 1010.6
20260502214840 75 152 1.0 3.0 0.00 0.00 0.00 71 1010.7
20260502214740 75 151 1.0 3.0 0.00 0.00 0.00 71 1010.7
20260502214642 75 151 2.0 4.0 0.00 0.00 0.00 72 1010.7
20260502214540 75 144 2.0 4.0 0.00 0.00 0.00 72 1010.7
20260502214440 75 290 1.0 4.0 0.00 0.00 0.00 72 1010.7
20260502214340 75 290 1.0 4.0 0.00 0.00 0.00 72 1010.8
20260502214240 75 290 2.0 4.0 0.00 0.00 0.00 71 1010.8
20260502214143 75 290 2.0 4.0 0.00 0.00 0.00 71 1010.7
20260502214041 75 73 1.0 4.0 0.00 0.00 0.00 72 1010.7
20260502213942 75 114 2.0 4.0 0.00 0.00 0.00 72 1010.8
20260502213840 75 113 2.0 4.0 0.00 0.00 0.00 72 1010.7
20260502213741 75 80 2.0 4.0 0.00 0.00 0.00 72 1010.7
20260502213642 75 244 1.0 6.0 0.00 0.00 0.00 72 1010.7
20260502213541 75 278 1.0 6.0 0.00 0.00 0.00 72 1010.7
20260502213440 75 278 1.0 6.0 0.00 0.00 0.00 72 1010.8
20260502213340 75 275 1.0 6.0 0.00 0.00 0.00 72 1010.8
20260502213240 75 275 2.0 6.0 0.00 0.00 0.00 72 1010.8
20260502213140 75 274 1.0 6.0 0.00 0.00 0.00 71 1010.8
20260502213041 75 351 0.0 6.0 0.00 0.00 0.00 71 1010.8
20260502212941 74 351 1.0 6.0 0.00 0.00 0.00 71 1010.9
20260502212840 74 353 2.0 6.0 0.00 0.00 0.00 71 1010.8
20260502212743 74 321 2.0 6.0 0.00 0.00 0.00 71 1010.8
20260502212642 74 79 2.0 3.0 0.00 0.00 0.00 72 1010.9
20260502212540 74 93 2.0 3.0 0.00 0.00 0.00 72 1010.9
20260502212442 74 63 2.0 3.0 0.00 0.00 0.00 71 1010.9
20260502212342 74 63 1.0 3.0 0.00 0.00 0.00 71 1010.9
20260502212240 74 48 0.0 3.0 0.00 0.00 0.00 71 1010.8
20260502212139 74 47 0.0 3.0 0.00 0.00 0.00 71 1010.9
20260502212041 74 47 1.0 4.0 0.00 0.00 0.00 71 1010.8
20260502211941 74 39 2.0 4.0 0.00 0.00 0.00 71 1010.9
20260502211841 74 13 1.0 4.0 0.00 0.00 0.00 71 1010.9
20260502211740 74 72 2.0 4.0 0.00 0.00 0.00 71 1010.9
20260502211639 74 357 2.0 4.0 0.00 0.00 0.00 71 1010.9
20260502211541 74 45 1.0 4.0 0.00 0.00 0.00 71 1010.9
20260502211442 74 47 2.0 4.0 0.00 0.00 0.00 71 1011.0
20260502211341 74 82 1.0 4.0 0.00 0.00 0.00 72 1011.0
20260502211240 74 102 1.0 4.0 0.00 0.00 0.00 72 1011.0
20260502211142 74 103 2.0 4.0 0.00 0.00 0.00 72 1010.9
20260502211039 74 114 2.0 4.0 0.00 0.00 0.00 72 1011.0
20260502210940 74 107 1.0 3.0 0.00 0.00 0.00 72 1011.0
20260502210848 74 99 0.0 3.0 0.00 0.00 0.00 72 1010.9
20260502210740 74 103 0.0 3.0 0.00 0.00 0.00 72 1011.0
20260502210641 74 100 1.0 3.0 0.00 0.00 0.00 72 1011.0